星链-32886 (STARLINK-32886)

导读

STARLINK-32886是美国于2025年1月24日发射的星链系列卫星,归属SpaceX星链互联网星座项目。星链项目旨在搭建全球覆盖的低轨卫星互联网,为偏远地区、海上等场景提供高速网络接入服务,该卫星加入后,进一步扩充了星链星座的在轨运行卫星规模,提升星座服务覆盖能力与网络稳定性。

Basic Information
目录编号:
62807
目录名称:
STARLINK-32886
国际标识:
2025-018B
轨道中心:
EARTH
卫星名称:
星链-32886
卫星全名:
星链-32886 (STARLINK-32886)
卫星状态:
在轨 (已飞行588 天)
发射日期:
2025-01-24 UTC
国别 :
美国 (US)
星等 :
--
Orbit Information
数据来源 国际轨道数据
星历时间: 2026-09-03T21:56:00+0800
23小时前
查看轨道信息
半长轴: 6840.856km
偏心率: 0.0001433
轨道倾角: 53.159°
近地点辐角 86.388°
升交点赤经 200.523°
平近点角 273.728°
近地点: 461.738km
远地点: 463.7km
周期: 93.848分钟
每日圈数: 15.343948
Detailed Information
固有亮度:
5
最大亮度:
2.5
卫星平台:
Starlink V1.0
覆盖范围:
全球
运营商:
太空探索技术公司
运营商所在国:
美国
制造商(研发单位):
太空探索技术公司
制造商所在国:
美国
使用方式:
暂无
Satellite Introduction
Starlink 计划是 SpaceX 推出的全球卫星互联网项目,通过发射低轨道卫星,为全球尤其是偏远地区提供高速、低延迟的互联网服务。自 2019 年起,Starlink 已部署数千颗卫星,旨在缩小全球数字鸿沟,推动互联网普及。该项目还为军事、航空等行业提供通信支持,带来广泛经济效益。
2D Orbit Map
3D Orbit Map
Orbit Altitude Analysis Chart
Orbit Inclination Analysis Chart
Orbit Comprehensive Analysis Chart
View Comprehensive Chart
Conjunction Data List
Event ID Objects TCA Miss Dist (km) Collision Risk Probability Collision Risk Index (CRI) Action
CDM_260906-103406-280706-443121
2026-09-06T
10:34:51+0000
1.929 km
极远距离
2.897872E-6 低风险 0.44